Miscellaneous Local Product
Issued by NWS North Platte, NE

Home | Current Version | Previous Version | Text Only | Print | Product List | Glossary On
Versions: 1 2 3 4 5 6 7 8 9 10 11 12 13 14 15 16 17 18 19 20 21 22 23 24 25 26 27 28 29 30 31 32 33 34 35 36 37 38 39 40 41 42 43 44 45 46 47 48 49 50
000
AXUS43 KLBF 291410
MISLBF


WESTERN AND NORTH CENTRAL NEBRASKA HOURLY WEATHER ROUNDUP
NATIONAL WEATHER SERVICE NORTH PLATTE NE
900 AM CDT MON JUN 29 2015

***STATIONS NOT REPORTING VARIABLES SUCH AS SKY/WEATHER OR
PRESSURE ARE PROVIDED BY THE NEBRASKA DEPARTMENT OF
ROADS...RAWS...AND APRS NETWORKS...AND ARE NOT UNDER
NATIONAL WEATHER SERVICE QUALITY CONTROL***

...OBSERVATIONS IN AND NEAR THE EASTERN PANHANDLE OF NEBRASKA...

CITY           SKY/WX    TMP DP  RH WIND       PRES   REMARKS
PINE RIDGE     CLOUDY    68  60  75 SW5       30.11R
CHADRON        LGT RAIN  65  61  87 N10       30.14S
ALLIANCE       MOSUNNY   69  61  75 CALM      30.18R
SIDNEY         SUNNY     71  60  68 W9        30.17R
WHITECLAY        N/A     68  59  73 E3          N/A
CRESCENT LAKE    N/A     69  57  65 N9G17       N/A
BIG SPRINGS      N/A     72  60  66 E5          N/A
$$

...OBSERVATIONS IN NORTH CENTRAL NEBRASKA...

CITY           SKY/WX    TMP DP  RH WIND       PRES   REMARKS
VALENTINE      SUNNY     71  61  70 W6        30.08S
THEDFORD       SUNNY     70  62  75 W6        30.11R
AINSWORTH      SUNNY     72  62  71 W8        30.08S
O`NEILL        MOSUNNY   69  61  75 W6        30.04S
ORD            SUNNY     65  59  81 N6        30.04R
BROKEN BOW     SUNNY     71  58  63 W7        30.07S
VALENTINE NWR    N/A     68  63  84 W6          N/A
SPRINGVIEW       N/A     65  59  82 W3          N/A
HALSEY           N/A     70  59  67 W3          N/A
BREWSTER         N/A     71  62  71 NW5         N/A
ROSE             N/A     81  73  76 W8          N/A
NEWPORT          N/A     70  63  78 W8          N/A
SARGENT          N/A     66  59  79 W5          N/A
CHAMBERS         N/A     72  60  64 N3          N/A
EWING            N/A     69  62  79 W5          N/A
$$

...OBSERVATIONS IN SOUTHWEST NEBRASKA AND FAR NORTHEAST COLORADO...

CITY           SKY/WX    TMP DP  RH WIND       PRES   REMARKS
WRAY           FAIR      79  51  37 SE7       30.13R
HOLYOKE        FAIR      79  61  53 SW6       30.12S
IMPERIAL       MOSUNNY   72  59  63 E6        30.12R
OGALLALA       MOSUNNY   71  61  71 E3        30.12R
NORTH PLATTE   MOSUNNY   70  60  70 CALM      30.09F
MCCOOK         SUNNY     72  58  61 SE3       30.09S
LEXINGTON      SUNNY     70  60  70 W5        30.08F
PAXTON           N/A     70  65  83 CALM        N/A
GOTHENBURG       N/A     70  55  59 W3          N/A
CALLAWAY         N/A     72  63  72 NW7         N/A
$$

...NORTH PLATTE AREA...

CITY           SKY/WX    TMP DP  RH WIND       PRES   REMARKS
AIRPORT        MOSUNNY   70  60  70 CALM      30.09F
DOWNTOWN         N/A     74  61  63 CALM        N/A
SANDRIDGE        N/A     74  59  58 CALM        N/A
HILLCREST        N/A     72  61  67 CALM        N/A
$$

...SOME WEATHER OBSERVATIONS FROM AROUND THE REGION...

CITY           SKY/WX    TMP DP  RH WIND       PRES   REMARKS
DENVER         MOSUNNY   66  56  70 SE5       30.26R
LARAMIE        SUNNY     60  50  69 VRB3      30.39R
CHEYENNE       SUNNY     67  53  61 SE3       30.30R
SCOTTSBLUFF    MOSUNNY   74  57  55 NW8G22    30.20R
RAPID CITY     MOSUNNY   76  62  62 NW3       30.08R
PIERRE         SUNNY     68  61  78 CALM      30.00S
WINNER         FAIR      71  54  54 CALM      30.04S
SIOUX FALLS    CLOUDY    72  61  68 NW3       29.94S
OMAHA          PTSUNNY   73  62  68 N9        29.94R
GRAND ISLAND   SUNNY     67  58  72 W7        30.04S
KANSAS CITY    SUNNY     73  64  73 CALM      29.94R
WICHITA        MOSUNNY   77  58  51 N8        30.00R
HAYS           SUNNY     73  52  46 N5        30.07S
LIBERAL        SUNNY     73  61  64 NE7       30.09R
GOODLAND       CLOUDY    68  57  68 NW7       30.15R
$$



USA.gov is the U.S. government's official web portal to all federal, state and local government web resources and services.